Radiation Dose at Monitoring Post of Fukushima Daini Nuclear Power Station
Date,Time,MP-1(microSv/h),MP-2(microSv/h),MP-3(microSv/h),MP-4(microSv/h),MP-5(microSv/h),MP-6(microSv/h),MP-7(microSv/h),Wind Direction,Wind Velocity(m/s),Rain
2020/05/19,00:00,0.182,0.167,0.264,0.253,0.260,0.143,0.088,north-northwest,4.6,Yes
2020/05/19,00:10,0.182,0.165,0.264,0.254,0.260,0.144,0.088,north-northwest,4.7,No
2020/05/19,00:20,0.179,0.164,0.263,0.252,0.260,0.143,0.087,north-northwest,5.7,Yes
2020/05/19,00:30,0.180,0.165,0.263,0.252,0.260,0.143,0.088,north-northwest,6.5,Yes
2020/05/19,00:40,0.180,0.165,0.262,0.251,0.259,0.142,0.087,northwest,6.3,Yes
2020/05/19,00:50,0.181,0.164,0.262,0.253,0.259,0.142,0.087,north-northwest,5.9,Yes
2020/05/19,01:00,0.179,0.164,0.263,0.251,0.257,0.142,0.088,north-northwest,5.2,Yes
2020/05/19,01:10,0.181,0.165,0.263,0.252,0.260,0.143,0.088,north-northwest,5.8,Yes
2020/05/19,01:20,0.180,0.167,0.262,0.252,0.258,0.142,0.088,north-northwest,6.3,Yes
2020/05/19,01:30,0.181,0.166,0.263,0.254,0.260,0.145,0.090,north-northwest,5.6,Yes
2020/05/19,01:40,0.181,0.167,0.262,0.251,0.260,0.144,0.090,north-northeast,7.9,Yes
2020/05/19,01:50,0.183,0.167,0.260,0.250,0.261,0.147,0.092,north-northwest,5.2,Yes
2020/05/19,02:00,0.182,0.170,0.262,0.252,0.261,0.147,0.093,north-northwest,5.0,Yes
2020/05/19,02:10,0.183,0.168,0.263,0.253,0.263,0.148,0.092,north-northwest,3.4,Yes
2020/05/19,02:20,0.183,0.169,0.264,0.253,0.263,0.147,0.093,north-northwest,2.7,Yes
2020/05/19,02:30,0.182,0.168,0.263,0.253,0.262,0.147,0.093,north-northwest,4.6,Yes
2020/05/19,02:40,0.181,0.167,0.263,0.254,0.262,0.146,0.091,north-northwest,4.4,Yes
2020/05/19,02:50,0.182,0.168,0.261,0.252,0.261,0.146,0.091,north,4.4,Yes
2020/05/19,03:00,0.180,0.167,0.262,0.253,0.261,0.144,0.091,north-northwest,5.2,Yes
2020/05/19,03:10,0.181,0.167,0.259,0.250,0.260,0.145,0.089,north,5.2,Yes
2020/05/19,03:20,0.178,0.165,0.260,0.250,0.260,0.143,0.090,north-northwest,4.6,Yes
2020/05/19,03:30,0.179,0.164,0.258,0.250,0.258,0.143,0.089,north-northwest,4.8,Yes
2020/05/19,03:40,0.178,0.165,0.260,0.250,0.260,0.143,0.089,north-northwest,3.6,Yes
2020/05/19,03:50,0.179,0.164,0.257,0.250,0.258,0.141,0.088,north-northwest,4.8,Yes
2020/05/19,04:00,0.179,0.164,0.259,0.248,0.260,0.141,0.088,north-northwest,2.4,Yes
2020/05/19,04:10,0.178,0.165,0.258,0.249,0.257,0.142,0.089,north,4.5,Yes
2020/05/19,04:20,0.179,0.165,0.258,0.248,0.261,0.142,0.089,north,2.1,Yes
2020/05/19,04:30,0.179,0.165,0.260,0.249,0.257,0.142,0.090,north,3.7,Yes
2020/05/19,04:40,0.179,0.165,0.257,0.247,0.260,0.141,0.089,north,5.0,Yes
2020/05/19,04:50,0.176,0.164,0.258,0.248,0.256,0.140,0.089,north,4.4,Yes
2020/05/19,05:00,0.178,0.164,0.256,0.247,0.259,0.140,0.088,north-northwest,3.6,Yes
2020/05/19,05:10,0.176,0.164,0.258,0.247,0.255,0.139,0.088,north-northwest,4.0,Yes
2020/05/19,05:20,0.177,0.163,0.256,0.247,0.258,0.139,0.087,north,3.7,Yes
2020/05/19,05:30,0.176,0.163,0.258,0.245,0.256,0.139,0.088,north-northwest,3.2,Yes
2020/05/19,05:40,0.177,0.162,0.257,0.246,0.258,0.139,0.089,north-northwest,3.9,Yes
2020/05/19,05:50,0.176,0.163,0.257,0.245,0.257,0.140,0.088,north-northwest,4.7,Yes
2020/05/19,06:00,0.175,0.163,0.258,0.247,0.256,0.140,0.088,north-northwest,4.1,Yes
2020/05/19,06:10,0.176,0.162,0.255,0.245,0.257,0.138,0.087,north-northwest,3.7,Yes
2020/05/19,06:20,0.174,0.163,0.259,0.247,0.256,0.139,0.087,north-northwest,4.6,Yes
2020/05/19,06:30,0.176,0.161,0.255,0.246,0.258,0.138,0.088,north-northwest,5.9,Yes
2020/05/19,06:40,0.175,0.162,0.258,0.246,0.255,0.139,0.087,north-northwest,5.7,Yes
2020/05/19,06:50,0.177,0.163,0.257,0.248,0.258,0.139,0.088,north-northwest,6.3,Yes
2020/05/19,07:00,0.175,0.163,0.256,0.245,0.257,0.140,0.088,north-northwest,5.7,Yes
2020/05/19,07:10,0.177,0.164,0.257,0.247,0.259,0.140,0.089,north-northwest,6.3,Yes
2020/05/19,07:20,0.176,0.164,0.256,0.247,0.258,0.140,0.089,north-northwest,5.5,Yes
2020/05/19,07:30,0.174,0.163,0.258,0.246,0.259,0.140,0.089,north-northwest,4.9,Yes
2020/05/19,07:40,0.176,0.163,0.254,0.247,0.258,0.140,0.089,north-northwest,5.5,Yes
2020/05/19,07:50,0.174,0.163,0.257,0.246,0.257,0.140,0.088,north-northwest,5.7,Yes
2020/05/19,08:00,0.176,0.163,0.258,0.246,0.259,0.139,0.089,north-northwest,5.0,Yes
2020/05/19,08:10,0.175,0.163,0.257,0.246,0.255,0.140,0.089,north-northwest,4.3,Yes
2020/05/19,08:20,0.175,0.162,0.258,0.246,0.259,0.140,0.089,north,5.8,Yes
2020/05/19,08:30,0.175,0.163,0.256,0.246,0.257,0.140,0.089,north,5.1,Yes
2020/05/19,08:40,0.175,0.164,0.257,0.246,0.259,0.140,0.088,north,6.2,Yes
2020/05/19,08:50,0.174,0.162,0.256,0.247,0.256,0.140,0.088,north,5.8,Yes
2020/05/19,09:00,0.173,0.162,0.257,0.246,0.258,0.139,0.088,north-northwest,6.4,Yes
2020/05/19,09:10,0.174,0.161,0.256,0.246,0.257,0.139,0.087,north-northwest,6.3,Yes
2020/05/19,09:20,0.174,0.162,0.257,0.244,0.257,0.139,0.087,north-northwest,7.0,Yes
2020/05/19,09:30,0.177,0.163,0.257,0.246,0.257,0.141,0.088,north-northwest,7.8,Yes
2020/05/19,09:40,0.175,0.164,0.256,0.245,0.258,0.141,0.089,north-northwest,7.6,Yes
2020/05/19,09:50,0.175,0.163,0.257,0.245,0.258,0.140,0.089,north-northwest,7.4,Yes
2020/05/19,10:00,0.174,0.164,0.257,0.246,0.256,0.141,0.089,north-northwest,8.2,Yes
2020/05/19,10:10,0.175,0.163,0.256,0.245,-,0.141,0.088,north-northwest,6.7,Yes
2020/05/19,10:20,0.174,0.164,0.257,0.246,-,0.140,0.088,north-northwest,6.6,Yes
2020/05/19,10:30,0.174,0.163,0.255,0.244,-,0.140,0.088,north-northwest,6.5,Yes
2020/05/19,10:40,0.173,0.163,0.256,0.244,-,0.140,0.089,north-northwest,6.4,Yes
2020/05/19,10:50,0.173,0.163,0.253,0.244,-,0.139,0.088,north-northwest,5.6,Yes
2020/05/19,11:00,0.173,0.162,0.254,0.244,-,0.140,0.089,west-southwest,4.2,Yes
2020/05/19,11:10,0.171,0.163,0.253,0.243,-,0.138,0.090,north-northwest,4.6,Yes
2020/05/19,11:20,0.171,0.163,0.254,0.242,-,0.140,0.089,north,5.7,Yes
2020/05/19,11:30,0.172,0.163,0.255,0.244,-,0.140,0.090,north-northeast,5.4,Yes
2020/05/19,11:40,0.172,0.163,0.253,0.243,-,0.140,0.089,north-northeast,5.5,Yes
2020/05/19,11:50,0.172,0.162,0.256,0.244,-,0.139,0.089,north-northeast,4.5,Yes
2020/05/19,12:00,0.171,0.162,0.255,0.243,-,0.140,0.089,northeast,5.1,Yes
2020/05/19,12:10,0.172,0.161,0.256,0.244,-,0.140,0.089,north-northeast,4.6,Yes
2020/05/19,12:20,0.171,0.163,0.254,0.244,-,0.140,0.089,north-northeast,4.8,Yes
2020/05/19,12:30,0.172,0.162,0.255,0.244,-,0.139,0.088,north-northeast,4.0,Yes
2020/05/19,12:40,0.171,0.160,0.254,0.244,-,0.138,0.087,northeast,4.0,Yes
2020/05/19,12:50,0.173,0.163,0.256,0.244,-,0.139,0.088,north-northeast,4.2,Yes
2020/05/19,13:00,0.173,0.164,0.257,0.247,-,0.142,0.091,northeast,5.4,Yes
2020/05/19,13:10,0.176,0.167,0.258,0.247,-,0.143,0.093,northeast,6.3,Yes
2020/05/19,13:20,0.174,0.166,0.258,0.249,-,0.143,0.094,northeast,6.4,Yes
2020/05/19,13:30,0.176,0.167,0.257,0.247,-,0.144,0.094,northeast,6.8,Yes
2020/05/19,13:40,0.174,0.166,0.260,0.249,-,0.144,0.093,north-northeast,7.0,Yes
2020/05/19,13:50,0.175,0.167,0.259,0.248,-,0.144,0.093,north,7.4,Yes
2020/05/19,14:00,0.174,0.168,0.260,0.249,-,0.144,0.094,north-northwest,8.7,Yes
2020/05/19,14:10,0.173,0.166,0.257,0.246,-,0.144,0.093,north-northwest,10.1,Yes
2020/05/19,14:20,0.174,0.166,0.258,0.247,-,0.143,0.092,north-northwest,8.5,Yes
2020/05/19,14:30,0.172,0.164,0.257,0.244,-,0.142,0.091,north-northwest,9.8,Yes
2020/05/19,14:40,0.173,0.162,0.257,0.242,-,0.141,0.090,north-northwest,10.3,Yes
2020/05/19,14:50,0.172,0.163,0.254,0.244,-,0.140,0.090,north-northwest,9.5,Yes
2020/05/19,15:00,0.170,0.163,0.255,0.242,-,0.139,0.090,northwest,11.1,Yes
2020/05/19,15:10,0.171,0.163,0.254,0.243,0.259,0.140,0.090,north-northwest,10.9,Yes
2020/05/19,15:20,0.170,0.163,0.256,0.244,0.256,0.139,0.089,north-northwest,12.0,Yes
2020/05/19,15:30,0.172,0.161,0.255,0.243,0.257,0.138,0.088,north-northwest,12.0,Yes
2020/05/19,15:40,0.170,0.162,0.253,0.243,0.255,0.138,0.087,north-northwest,9.2,Yes
2020/05/19,15:50,0.170,0.160,0.254,0.241,0.255,0.137,0.087,north-northwest,10.1,Yes
2020/05/19,16:00,0.170,0.161,0.253,0.242,0.255,0.138,0.087,north-northwest,10.1,Yes
2020/05/19,16:10,0.170,0.161,0.253,0.241,0.255,0.136,0.087,northwest,10.1,Yes
2020/05/19,16:20,0.170,0.161,0.253,0.240,0.255,0.136,0.087,north-northwest,9.6,Yes
2020/05/19,16:30,0.169,0.160,0.252,0.242,0.254,0.137,0.085,north-northwest,9.0,Yes
2020/05/19,16:40,0.170,0.161,0.252,0.241,0.255,0.137,0.087,north-northwest,9.5,Yes
2020/05/19,16:50,0.169,0.160,0.252,0.237,0.254,0.137,0.087,north-northwest,9.8,Yes
2020/05/19,17:00,0.169,0.161,0.250,0.240,0.253,0.136,0.088,north-northwest,10.4,Yes
2020/05/19,17:10,0.169,0.161,0.251,0.238,0.255,0.138,0.088,north-northwest,9.3,Yes
2020/05/19,17:20,0.169,0.162,0.252,0.239,0.253,0.137,0.089,north-northwest,9.3,Yes
2020/05/19,17:30,0.168,0.162,0.250,0.239,0.255,0.138,0.089,north-northwest,9.3,Yes
2020/05/19,17:40,0.169,0.162,0.251,0.238,0.253,0.138,0.089,north-northwest,11.7,Yes
2020/05/19,17:50,0.168,0.161,0.250,0.241,0.254,0.139,0.090,northwest,10.7,Yes
2020/05/19,18:00,0.169,0.160,0.252,0.240,0.257,0.138,0.089,northwest,11.2,Yes
2020/05/19,18:10,0.169,0.160,0.252,0.240,0.254,0.137,0.088,north-northwest,11.2,Yes
2020/05/19,18:20,0.168,0.159,0.251,0.241,0.255,0.137,0.087,northwest,11.1,Yes
2020/05/19,18:30,0.168,0.160,0.252,0.239,0.255,0.136,0.086,northwest,10.1,Yes
2020/05/19,18:40,0.169,0.158,0.252,0.238,0.253,0.135,0.086,north-northwest,9.8,Yes
2020/05/19,18:50,0.167,0.158,0.249,0.240,0.255,0.135,0.086,north-northwest,7.9,Yes
2020/05/19,19:00,0.169,0.157,0.251,0.238,0.252,0.135,0.085,north-northwest,8.7,Yes
2020/05/19,19:10,0.168,0.158,0.251,0.240,0.254,0.135,0.085,north-northwest,6.7,Yes
2020/05/19,19:20,0.168,0.157,0.250,0.238,0.253,0.136,0.085,north,9.5,Yes
2020/05/19,19:30,0.170,0.157,0.251,0.238,0.251,0.135,0.085,north,8.1,Yes
2020/05/19,19:40,0.169,0.156,0.251,0.240,0.255,0.135,0.085,north,7.8,Yes
2020/05/19,19:50,0.169,0.158,0.249,0.238,0.253,0.135,0.085,north,8.1,Yes
2020/05/19,20:00,0.167,0.157,0.251,0.239,0.254,0.135,0.084,north,10.4,Yes
2020/05/19,20:10,0.167,0.158,0.250,0.239,0.253,0.134,0.085,north,9.5,Yes
2020/05/19,20:20,0.169,0.158,0.249,0.238,0.252,0.135,0.085,north-northwest,9.2,Yes
2020/05/19,20:30,0.169,0.159,0.250,0.238,0.254,0.136,0.085,north,10.7,Yes
2020/05/19,20:40,0.167,0.159,0.249,0.239,0.252,0.136,0.087,north,9.5,Yes
2020/05/19,20:50,0.168,0.159,0.248,0.235,0.253,0.137,0.086,north-northwest,8.5,Yes
2020/05/19,21:00,0.167,0.159,0.249,0.237,0.254,0.137,0.088,north,8.3,Yes
2020/05/19,21:10,0.166,0.161,0.248,0.237,0.253,0.137,0.088,north,8.1,Yes
2020/05/19,21:20,0.166,0.161,0.248,0.238,0.255,0.138,0.088,north,9.2,Yes
2020/05/19,21:30,0.167,0.162,0.248,0.237,0.255,0.137,0.088,north,7.9,Yes
2020/05/19,21:40,0.166,0.162,0.249,0.237,0.254,0.137,0.089,north,10.0,Yes
2020/05/19,21:50,0.166,0.161,0.248,0.237,0.256,0.139,0.089,north,11.2,Yes
2020/05/19,22:00,0.167,0.162,0.250,0.238,0.254,0.139,0.089,north,9.8,Yes
2020/05/19,22:10,0.167,0.162,0.251,0.239,0.256,0.138,0.090,north,9.5,Yes
2020/05/19,22:20,0.167,0.162,0.249,0.238,0.255,0.138,0.089,north,10.4,Yes
2020/05/19,22:30,0.167,0.162,0.249,0.239,0.255,0.138,0.089,north,10.9,Yes
2020/05/19,22:40,0.167,0.161,0.250,0.238,0.253,0.137,0.089,north,10.9,Yes
2020/05/19,22:50,0.167,0.162,0.248,0.238,0.254,0.137,0.088,north-northwest,11.5,Yes
2020/05/19,23:00,0.167,0.160,0.249,0.237,0.254,0.136,0.087,north-northwest,9.5,Yes
2020/05/19,23:10,0.167,0.160,0.248,0.239,0.254,0.137,0.087,north,9.6,Yes
2020/05/19,23:20,0.165,0.160,0.249,0.238,0.255,0.135,0.087,north,11.7,Yes
2020/05/19,23:30,0.165,0.159,0.249,0.237,0.253,0.135,0.087,north-northwest,8.5,Yes
2020/05/19,23:40,0.164,0.159,0.248,0.237,0.254,0.136,0.087,north,9.5,Yes
2020/05/19,23:50,0.165,0.158,0.248,0.237,0.253,0.135,0.087,north,11.5,Yes
